Location: Plum
(40.5000°N, 79.7500°W)
Time: 08:14:59
(UTC-04:00)

Daily predictions for brighter satellites

Satellite Brightness Start Highest point End
(mag) Time Altitude Azimuth Time Altitude Azimuth Time Altitude Azimuth
USA 238 DEB 4.0 19:24:15 10° SW 19:31:17 77° NW 19:38:22 10° NNE
USA 238 4.0 19:24:20 10° SW 19:31:23 77° NW 19:38:29 10° NNE
ATLAS CENTAUR R/B 3.6 19:27:17 10° S 19:31:42 49° ESE 19:44:22 10° NE
CZ-4C R/B 2.7 19:29:04 10° SW 19:34:19 65° NW 19:40:16 10° NNE
Meteor 2-5 Rocket 3.9 19:30:39 10° NNW 19:36:18 80° W 19:41:50 10° S
Meteor 1-24 Rocket 3.7 19:31:13 10° N 19:36:50 59° ENE 19:42:12 10° SSE
Cosmos 1707 2.8 19:35:19 10° N 19:39:10 82° W 19:43:01 10° S
Cosmos 1812 Rocket 4.4 19:37:41 10° SSW 19:41:55 55° W 19:46:13 10° N
Cosmos 2369 Rocket 4.1 19:42:15 10° NNE 19:44:06 11° NE 19:45:58 10° ENE
SAR-Lupe-4 3.5 19:41:55 10° SSE 19:45:28 80° ENE 19:49:03 10° N
Cosmos 1464 Rocket 4.2 19:40:43 10° SSE 19:46:42 50° E 19:52:39 10° NNE
SJ-6B 2.8 19:42:55 10° SSE 19:46:51 67° ENE 19:50:52 10° N
Cosmos 1766 Rocket 4.3 19:42:57 10° NNE 19:46:52 31° ENE 19:50:43 10° SE
FREGAT/IRIS 2.8 19:45:46 10° SSE 19:48:46 49° ENE 19:51:46 10° N
Cosmos 1437 2.9 19:47:37 10° NNW 19:50:53 80° W 19:54:09 10° S
Cosmos 1758 4.1 19:52:28 10° SSE 19:56:04 31° E 19:59:41 10° NNE
Cosmos 2333 Rocket 3.8 19:54:16 10° SW 19:59:36 38° WNW 20:04:57 10° N
Spot 2 Rocket 3.5 19:57:01 10° SSE 20:01:57 58° ENE 20:06:54 10° N
NOSS 3-2 (C) 3.4 19:57:22 10° SSW 20:03:19 65° ESE 20:09:48 10° NE
CENTAUR R/B 3.8 20:00:15 10° SE 20:03:47 16° ESE 20:05:41 14° E
Cosmos 1076 Rocket 3.5 19:59:36 10° N 20:03:53 58° E 20:08:08 10° SSE
FengYun 1-2 T 4.5 19:58:52 10° SE 20:04:08 48° ENE 20:09:24 10° N
ASTEX 1 4.3 20:01:33 10° NNE 20:05:40 26° E 20:09:44 10° SE
Cosmos 2056 Rocket 3.9 20:00:52 10° NNW 20:06:17 73° WSW 20:11:40 10° S
Helios 1B rocket 2.5 20:02:20 10° NNE 20:06:23 54° E 20:10:24 10° S
Cosmos-2242 3.4 20:04:19 10° SSE 20:08:22 39° E 20:12:28 10° NNE
In-Cosmos 22 4.2 20:08:50 10° N 20:14:36 65° ENE 20:20:18 10° SSE
NOAA 12 4.4 20:11:07 10° S 20:16:20 69° WSW 20:21:37 10° NNW
Cosmos 1674 4.0 20:13:51 10° NNE 20:16:53 21° ENE 20:16:58 21° ENE
Atlas Centaur 2 4.2 20:12:31 10° WSW 20:19:51 33° SSW 20:26:11 12° SE
Meteor 1-21 Rocket 4.3 20:14:27 10° N 20:19:53 53° ENE 20:25:16 10° SSE
Cosmos 1408 Rocket 3.4 20:17:20 10° N 20:21:44 81° E 20:26:02 10° S
ASTRO E2 4.4 20:18:44 10° SW 20:21:55 22° S 20:23:32 17° SSE
Cosmos 2237 Rocket 4.3 20:20:44 10° WSW 20:25:34 28° NW 20:30:26 10° N
Cosmos 1346 3.7 20:25:43 10° N 20:28:07 35° ENE 20:28:07 35° ENE
ATLAS CENTAUR R/B 3.5 20:25:33 10° NW 20:28:59 25° WSW 20:32:12 10° S
Aureole 2 Rocket 4.3 20:25:59 10° SW 20:30:09 42° WNW 20:34:15 10° N
Abrixas 4.2 20:28:45 10° SSW 20:30:15 20° S 20:30:15 20° S
Resurs 01 Rocket 1.9 20:27:46 10° S 20:32:12 70° WSW 20:36:39 10° NNW
HJ-1C 4.1 20:29:38 10° S 20:32:56 54° W 20:36:15 10° NNW
ATLAS 5 CENTAUR R/B 1.8 20:28:28 10° SSW 20:33:13 90° WNW 20:38:24 10° NE
Resurs 1-3 3.6 20:29:23 10° SSE 20:33:46 87° WSW 20:38:12 10° NNW
USA 215 3.4 20:33:01 10° NE 20:39:33 76° NW 20:46:03 10° WSW
CZ-2D R/B 3.2 20:43:00 38° SE 20:44:20 67° ENE 20:48:13 10° N
SL-16 R/B 3.4 20:39:19 10° SW 20:44:42 43° WNW 20:50:08 10° N
Meteor 1-29 3.7 20:41:19 10° N 20:44:46 54° WNW 20:48:11 10° SSW
Cosmos 1743 Rocket 3.4 20:44:51 10° N 20:49:19 77° E 20:51:26 30° SSE
Cosmos 1953 3.0 20:46:53 10° SSW 20:50:47 54° W 20:54:42 10° N
ISS -0.6 20:49:28 10° SSW 20:49:30 10° SSW 20:49:30 10° SSW
ERS-1 Rocket 3.8 20:54:54 31° ENE 20:54:54 31° ENE 20:58:53 10° N
Helios 1A 4.3 20:52:42 10° SSW 20:56:37 39° W 21:00:33 10° NNW
Nadezhda 4 Rocket 3.9 20:50:56 10° N 20:57:15 90° NNE 21:03:28 10° S
SeaSat 1 2.3 20:54:41 10° NNE 20:59:37 63° ESE 21:04:29 10° SSW
BREEZE-M DEB (TANK) 3.8 20:47:55 10° W 21:00:34 56° N 21:02:28 35° ENE
GP-B 3.5 20:57:49 10° N 21:01:21 47° NE 21:01:21 47° NE
H-2A R/B 2.9 21:01:10 47° S 21:02:13 75° WSW 21:06:07 10° NNW
Cosmos 1452 Rocket 4.2 20:57:49 10° NNW 21:02:56 52° WSW 21:07:29 13° S
Cosmos 1092 Rocket 3.8 20:57:01 10° N 21:03:15 74° E 21:06:37 29° SSE
Cosmos 1544 3.8 21:00:56 10° SSW 21:04:34 53° W 21:08:15 10° N
CZ-4B DEB 4.1 21:06:22 35° SW 21:07:00 40° W 21:10:08 10° NNW
ALOS 2.9 21:04:18 13° S 21:08:16 55° W 21:12:52 10° NNW
FENGYUN 3A 4.1 21:06:42 10° S 21:11:54 58° W 21:17:14 10° NNW
OAO 3 Rocket 3.8 21:09:02 10° WSW 21:13:21 43° SSW 21:13:21 43° SSW
Cosmos 1634 Rocket 3.8 21:10:57 10° S 21:17:10 74° E 21:23:23 10° N
Cosmos 2026 Rocket 4.0 21:12:54 10° N 21:18:46 54° ENE 21:18:46 54° ENE
Cosmos 1470 4.0 21:24:32 35° NNW 21:24:32 35° NNW 21:27:00 10° N
Cosmos 1420 Rocket 4.5 21:20:50 10° NNW 21:26:02 59° WSW 21:27:35 42° SSW
H-2A R/B 4.4 21:31:47 15° NNE 21:31:47 15° NNE 21:32:44 10° N
Cosmos 2369 Rocket 2.2 21:23:35 10° NNW 21:28:54 66° NE 21:28:54 66° NE
Cosmos 1943 Rocket 3.4 21:31:45 10° N 21:35:15 29° NNE 21:35:15 29° NNE
Cosmos 2195 Rocket 4.4 21:34:07 10° N 21:40:28 89° W 21:41:05 75° S
Envisat 3.9 21:53:17 44° NNW 21:53:17 44° NNW 21:56:43 10° NNW
CENTAUR R/B 2.5 21:47:18 10° SW 21:59:44 12° NNE 22:00:13 10° NNE
Exosat Rocket 4.5 21:48:01 10° NNW 21:54:47 86° ENE 21:55:51 71° SSE
